Weather in Sapronovo

Russia / Amur Oblast     51°24′40″N   128°51′40″E
temp.,
°C
wind,
m/s
gust,
m/s
humid.,
%
clouds,
%
prec.,
mm/h
press.,
hPa
HPBL,
m
18 may, tue
tue1800:00+11nnw4761100 0.9 999173
03:00+8ne5986100 2.7 998284
06:00+8ene2386100 0.1 999218
09:00+12sw236730 0.1 999714
12:00+15wnw5761100 0.3 10001280
15:00+16nw8104389 0.4 10012143
18:00+16nw363394 0.0 10012632
21:00+12n6123688 0.0 1003542
19 may, wed
wed1900:00+9n5114199 0.0 1005416
03:00+7n4760100 0.2 1005220
06:00+7nne257794 1.1 1006174
09:00+11nne2256100 1.1 1007804
12:00+14nw244565 0.0 10061522
15:00+17ssw143663 0.0 10052270
18:00+17sse453856 0.0 10031811
21:00+14se61243100 0.0 1000366
20 may, thu
thu2000:00+14sse102041100 0.0 995705
03:00+13ssw8175996 0.2 994692
06:00+10wnw812714 0.0 998691
09:00+12wnw8105411 0.0 10021042
12:00+16nw5734100 0.0 10031575
15:00+17wnw5628100 0.0 10052076
18:00+16nw2333100 0.0 10051704
21:00+12ene3444100 0.0 100758
21 may, fri
fri2100:00+9n41066100 0.0 1010379
03:00+7nne4976100 0.0 1011454
06:00+8nne3870100 0.0 1013417
09:00+12n463883 0.0 10131146
12:00+15n452343 0.0 10121656
15:00+16n332178 0.0 10101563
18:00+16nne442575 0.0 10101528
21:00+13nne363392 0.0 1011150
22 may, sat
sat2200:00+9ne354465 0.0 101190
03:00+7ne355673 0.0 1011100
06:00+9ne3755100 0.0 1010229
09:00+9ne4758100 0.2 1008230
12:00+19e473299 0.0 10051059
15:00+24sse8114191 0.0 9991266
18:00+24sse7124573 0.0 997608
21:00+21sse91948100 0.0 996440